This is the latest recevied weather packets stored in our database for station/object SQ7FJB-2. If no packets are shown the sender has not sent any weather packets the latest 10 day(s).
| Time | Temp. | Humidity | Pressure | Rain* | Wind** | Luminosity | Snow |
|---|---|---|---|---|---|---|---|
| 1778092504 | 16.67° C | 72% | 1004.4 hPa | 0 mm | - | - | - |
| 1778091892 | 17.22° C | 70% | 1004.3 hPa | 0 mm | - | - | - |
| 1778091291 | 17.78° C | 70% | 1004.3 hPa | 0 mm | - | - | - |
| 1778090680 | 18.33° C | 68% | 1004.2 hPa | 0 mm | - | - | - |
| 1778090080 | 18.89° C | 68% | 1004 hPa | 0 mm | - | - | - |
| 1778089479 | 19.44° C | 65% | 1004 hPa | 0 mm | - | - | - |
| 1778088868 | 20° C | 61% | 1004.1 hPa | 0 mm | - | - | - |
| 1778088267 | 20.56° C | 57% | 1004 hPa | 0 mm | - | - | - |
| 1778087654 | 21.11° C | 53% | 1004.1 hPa | 0 mm | - | - | - |
| 1778087054 | 21.11° C | 52% | 1004.1 hPa | 0 mm | - | - | - |
| 1778086442 | 21.67° C | 48% | 1004 hPa | 0 mm | - | - | - |
| 1778085842 | 22.22° C | 47% | 1004.1 hPa | 0 mm | - | - | - |
| 1778085229 | 22.78° C | 45% | 1004 hPa | 0 mm | - | - | - |
| 1778084617 | 23.33° C | 43% | 1004 hPa | 0 mm | - | - | - |
| 1778084005 | 23.33° C | 43% | 1004.1 hPa | 0 mm | - | - | - |
| 1778083404 | 22.78° C | 44% | 1004.2 hPa | 0 mm | - | - | - |
| 1778082792 | 23.33° C | 44% | 1004.2 hPa | 0 mm | - | - | - |
| 1778082191 | 24.44° C | 43% | 1004.3 hPa | 0 mm | - | - | - |
| 1778081579 | 23.89° C | 43% | 1004.3 hPa | 0 mm | - | - | - |
| 1778080967 | 23.33° C | 43% | 1004.3 hPa | 0 mm | - | - | - |
| 1778080354 | 23.89° C | 46% | 1004.3 hPa | 0 mm | - | - | - |
| 1778079742 | 23.89° C | 44% | 1004.3 hPa | 0 mm | - | - | - |
| 1778079142 | 24.44° C | 39% | 1004.3 hPa | 0 mm | - | - | - |
| 1778078542 | 25° C | 40% | 1004.3 hPa | 0 mm | - | - | - |
| 1778077941 | 23.89° C | 41% | 1004.4 hPa | 0 mm | - | - | - |
* Rain latest hour (hover to see other rain measurements)
** Current wind speed in m/s (hover to see current wind gust speed)